Bookmark and Share
Track history (hours):
 

Westrac

More information available from US FCC via Universal Licensing System and Coast Guard Vessel Documentation Center.

Last reported at 2014-Apr-18 00:39 UTC. Time now 2014-Apr-18 08:03 UTC.
Position N 47°34' W 122°21'.

Length 23 m; draft 5 m.

Type: Tug. MMSI: 366993010.

NotesDate/timePositionNaut miles runAvg speedWind from/ knotsBaromVisibWave heightAir tempDewpointWater temp
2014-Apr-18 00:39N 47°34' W 122°21'1 7.8
2014-Apr-18 00:33N 47°35' W 122°22'0 5.9
2014-Apr-18 00:29N 47°35' W 122°21'0 0.5
2014-Apr-17 23:34N 47°36' W 122°22'0 0.0
2014-Apr-17 23:33N 47°36' W 122°22'2 2.5
2014-Apr-17 22:34N 47°33' W 122°20'0 7.2
2014-Apr-17 22:33N 47°33' W 122°20'2 1.9
2014-Apr-17 21:34N 47°35' W 122°22'017.3
2014-Apr-17 21:33N 47°35' W 122°22'0 0.5
2014-Apr-17 20:34N 47°35' W 122°22'0 4.3
2014-Apr-17 20:33N 47°35' W 122°22'2 2.2
2014-Apr-17 19:34N 47°33' W 122°21'0 0.0
2014-Apr-17 19:33N 47°33' W 122°21'1 0.9
2014-Apr-17 18:33N 47°34' W 122°21'0 0.0
2014-Apr-17 18:33N 47°34' W 122°21'0 0.1
2014-Apr-17 17:33N 47°34' W 122°21'0 0.8
2014-Apr-17 17:30N 47°34' W 122°21'1 1.5
2014-Apr-17 16:33N 47°35' W 122°21'0 1.6
2014-Apr-17 16:30N 47°35' W 122°21'1 0.7
2014-Apr-17 15:33N 47°35' W 122°21'0 0.0
2014-Apr-17 15:30N 47°35' W 122°21'0 0.0
2014-Apr-17 14:33N 47°35' W 122°21'0 8.4
2014-Apr-17 14:30N 47°35' W 122°22'2 1.6
2014-Apr-17 13:33N 47°33' W 122°21'0 0.1
2014-Apr-17 13:30N 47°33' W 122°21'1 0.1
2014-Apr-17 01:34N 47°34' W 122°21'0 6.5
2014-Apr-17 01:33N 47°34' W 122°21'0 3.5
2014-Apr-17 01:28N 47°34' W 122°21'1 1.5
2014-Apr-17 00:34N 47°33' W 122°20'0 0.5
2014-Apr-17 00:33N 47°33' W 122°20'4 3.8
2014-Apr-16 23:34N 47°36' W 122°23'0 3.8
2014-Apr-16 23:33N 47°36' W 122°23'4 3.9
2014-Apr-16 22:33N 47°33' W 122°20'0 4.9
2014-Apr-16 22:29N 47°33' W 122°21'0 0.0
2014-Apr-16 21:33N 47°33' W 122°21'0 0.0
2014-Apr-16 21:33N 47°33' W 122°21'2 1.9
2014-Apr-16 20:33N 47°35' W 122°22'1 0.6
2014-Apr-16 19:33N 47°34' W 122°21'0 0.0
2014-Apr-16 19:33N 47°34' W 122°21'2 2.1
2014-Apr-16 18:33N 47°33' W 122°20'0 0.0
2014-Apr-16 18:33N 47°33' W 122°20'3 2.9
2014-Apr-16 17:33N 47°35' W 122°22'0 6.5
2014-Apr-16 17:33N 47°35' W 122°22'5 4.9
2014-Apr-16 16:33N 47°34' W 122°29'016.9
2014-Apr-16 16:33N 47°34' W 122°29'3 2.7
2014-Apr-16 15:32N 47°35' W 122°25'0 0.0
2014-Apr-16 15:32N 47°35' W 122°25'3 3.2
2014-Apr-16 14:33N 47°34' W 122°21'0 8.5
2014-Apr-16 14:33N 47°34' W 122°21'2 1.6
2014-Apr-16 13:33N 47°36' W 122°22'0 1.1
2014-Apr-16 13:33N 47°36' W 122°22'2 1.7
2014-Apr-16 12:33N 47°34' W 122°21'0 0.3
2014-Apr-16 12:32N 47°34' W 122°21'0 0.0
2014-Apr-16 11:33N 47°34' W 122°21'0 0.3
2014-Apr-16 11:32N 47°34' W 122°21'0 0.0
2014-Apr-16 10:33N 47°34' W 122°21'0 0.0
2014-Apr-16 10:33N 47°34' W 122°21'0 0.0
2014-Apr-16 09:33N 47°34' W 122°21'0 0.0
2014-Apr-16 09:33N 47°34' W 122°21'0 0.0
2014-Apr-16 08:33N 47°34' W 122°21'0 0.0
2014-Apr-16 08:33N 47°34' W 122°21'0 0.0
2014-Apr-16 07:33N 47°34' W 122°21'0 0.0
2014-Apr-16 07:33N 47°34' W 122°21'0 0.0
2014-Apr-16 06:33N 47°34' W 122°21'0 0.0
2014-Apr-16 06:32N 47°34' W 122°21'0 0.5
2014-Apr-16 05:47N 47°34' W 122°21'1 2.9
2014-Apr-16 05:33N 47°33' W 122°21'4 3.7
2014-Apr-16 04:33N 47°36' W 122°25'0 7.3
2014-Apr-16 04:32N 47°36' W 122°25'5 5.0
2014-Apr-16 03:33N 47°33' W 122°31'0 7.7
2014-Apr-16 03:32N 47°33' W 122°31'7 7.1
2014-Apr-16 02:33N 47°34' W 122°21'0 0.0
2014-Apr-16 02:32N 47°34' W 122°21'0 0.0
2014-Apr-16 01:33N 47°34' W 122°21'0 0.3
2014-Apr-16 01:32N 47°34' W 122°21'0 0.0
2014-Apr-16 00:33N 47°34' W 122°21'0 0.4
2014-Apr-16 00:32N 47°34' W 122°21'0 0.0
2014-Apr-15 23:33N 47°34' W 122°21'0 0.3
2014-Apr-15 23:32N 47°34' W 122°21'0 0.0
2014-Apr-15 22:33N 47°34' W 122°21'0 0.0
2014-Apr-15 22:32N 47°34' W 122°21'0 0.0
2014-Apr-15 21:33N 47°34' W 122°21'0 0.0
2014-Apr-15 21:32N 47°34' W 122°21'0 0.0
2014-Apr-15 20:33N 47°34' W 122°21'0 0.0
2014-Apr-15 20:32N 47°34' W 122°21'0 0.0
2014-Apr-15 19:33N 47°34' W 122°21'0 0.3
2014-Apr-15 19:32N 47°34' W 122°21'0 0.0
2014-Apr-15 18:33N 47°34' W 122°21'0 0.3
2014-Apr-15 18:32N 47°34' W 122°21'0 0.0
2014-Apr-15 17:33N 47°34' W 122°21'0 0.2
2014-Apr-15 17:32N 47°34' W 122°21'5 5.0
2014-Apr-15 16:33N 47°34' W 122°28'0 9.0
2014-Apr-15 16:32N 47°34' W 122°28'3 2.7
2014-Apr-15 15:33N 47°33' W 122°32'1 7.7
2014-Apr-15 15:27N 47°33' W 122°31'6 7.0
2014-Apr-15 14:33N 47°35' W 122°22'0 8.4
2014-Apr-15 14:32N 47°35' W 122°22'1 0.8
2014-Apr-15 13:32N 47°34' W 122°21'0 0.0
2014-Apr-15 12:34N 47°34' W 122°21'0 0.0
2014-Apr-14 15:32N 47°34' W 122°21'0 0.3
2014-Apr-14 14:34N 47°34' W 122°21'1 4.4
2014-Apr-14 14:16N 47°35' W 122°22'1 1.3
2014-Apr-14 13:33N 47°35' W 122°22'117.8
2014-Apr-14 13:31N 47°34' W 122°21'0 0.0
2014-Apr-14 12:30N 47°34' W 122°21'0 0.0
2014-Apr-14 11:34N 47°34' W 122°21'0 0.1
2014-Apr-14 11:30N 47°34' W 122°21'0 0.0
2014-Apr-14 10:34N 47°34' W 122°21'0 0.0
2014-Apr-14 10:31N 47°34' W 122°21'0 0.0
2014-Apr-14 09:33N 47°34' W 122°21'0 0.1
2014-Apr-14 09:30N 47°34' W 122°21'0 0.0
2014-Apr-14 08:34N 47°34' W 122°21'0 0.0
2014-Apr-14 08:30N 47°34' W 122°21'0 0.0
2014-Apr-14 07:33N 47°34' W 122°21'0 0.0
2014-Apr-14 07:30N 47°34' W 122°21'0 0.0
2014-Apr-14 06:33N 47°34' W 122°21'0 0.1
2014-Apr-14 06:30N 47°34' W 122°21'1 1.0
2014-Apr-14 05:50N 47°35' W 122°22'1 2.5
2014-Apr-14 05:33N 47°34' W 122°21'0 0.2
2014-Apr-14 04:25N 47°34' W 122°21'0 0.2
2014-Apr-14 03:30N 47°34' W 122°21'1 0.9
2014-Apr-14 02:28N 47°33' W 122°21'4 4.0
2014-Apr-14 01:28N 47°37' W 122°23'3 1.1
2014-Apr-13 22:33N 47°34' W 122°21'1 1.1
2014-Apr-13 21:33N 47°33' W 122°20'3 2.6
2014-Apr-13 20:33N 47°35' W 122°22'2 0.1
2014-Apr-13 00:17N 47°34' W 122°21'1 1.4
2014-Apr-12 23:33N 47°35' W 122°22'0 0.4
2014-Apr-12 22:33N 47°35' W 122°22'2 2.1
2014-Apr-12 21:33N 47°34' W 122°21'2 2.8
2014-Apr-12 20:53N 47°35' W 122°21'1 3.0
2014-Apr-12 20:34N 47°36' W 122°22'0 8.6
2014-Apr-12 20:32N 47°36' W 122°22'2 2.5
2014-Apr-12 19:33N 47°33' W 122°21'0 0.5
2014-Apr-12 19:32N 47°33' W 122°21'2 1.9
2014-Apr-12 18:34N 47°35' W 122°22'0 5.7
2014-Apr-12 18:32N 47°35' W 122°22'2 2.5
2014-Apr-12 17:33N 47°33' W 122°20'0 4.8
2014-Apr-12 17:32N 47°33' W 122°20'3 2.5
2014-Apr-12 16:30N 47°35' W 122°21'0 0.0
2014-Apr-12 16:21N 47°35' W 122°21'1 1.6
2014-Apr-12 15:34N 47°35' W 122°22'0 0.0
2014-Apr-12 15:31N 47°35' W 122°22'0 0.0
2014-Apr-12 14:33N 47°35' W 122°22'0 0.0
2014-Apr-12 14:31N 47°35' W 122°22'0 0.0
2014-Apr-12 13:33N 47°35' W 122°22'0 0.0
2014-Apr-12 13:31N 47°35' W 122°22'0 0.0
2014-Apr-12 12:34N 47°35' W 122°22'0 0.0
2014-Apr-12 12:25N 47°35' W 122°22'0 0.0
2014-Apr-12 11:33N 47°35' W 122°22'0 0.0
2014-Apr-12 10:33N 47°35' W 122°22'2 1.8
2014-Apr-12 09:33N 47°37' W 122°23'1 1.1
2014-Apr-12 08:49N 47°38' W 122°23'0 1.7
2014-Apr-12 08:34N 47°37' W 122°24'0 2.2
2014-Apr-12 08:29N 47°37' W 122°23'2 2.6
2014-Apr-12 07:33N 47°35' W 122°22'0 0.0
2014-Apr-12 07:29N 47°35' W 122°22'0 0.0
2014-Apr-12 06:34N 47°35' W 122°22'0 0.8
2014-Apr-12 06:33N 47°35' W 122°22'0 0.0
2014-Apr-12 05:49N 47°35' W 122°22'0 0.0
2014-Apr-12 05:33N 47°35' W 122°22'0 0.0
2014-Apr-12 04:33N 47°35' W 122°22'0 0.1
2014-Apr-12 04:29N 47°35' W 122°22'2 2.5
2014-Apr-12 03:33N 47°33' W 122°20'0 4.1
2014-Apr-12 03:29N 47°33' W 122°20'0 0.3
2014-Apr-12 02:33N 47°33' W 122°21'0 0.0
2014-Apr-12 02:29N 47°33' W 122°21'0 0.4
2014-Apr-12 01:34N 47°33' W 122°20'1 4.0
2014-Apr-12 01:24N 47°33' W 122°21'1 0.8
2014-Apr-12 00:34N 47°34' W 122°21'0 4.6
2014-Apr-12 00:29N 47°34' W 122°21'1 0.6
2014-Apr-11 23:34N 47°33' W 122°20'0 0.0
2014-Apr-11 23:34N 47°33' W 122°20'0 0.0
2014-Apr-11 22:30N 47°33' W 122°20'0 0.0
2014-Apr-11 22:18N 47°33' W 122°20'0 0.5
2014-Apr-11 21:34N 47°33' W 122°20'0 2.7
2014-Apr-11 21:33N 47°33' W 122°20'3 2.5
2014-Apr-11 20:33N 47°35' W 122°22'0 9.6
2014-Apr-11 20:33N 47°35' W 122°22'2 1.9
2014-Apr-11 19:34N 47°33' W 122°21'0 0.0
2014-Apr-11 19:33N 47°33' W 122°21'0 0.0
2014-Apr-11 18:33N 47°33' W 122°21'0 0.0
2014-Apr-11 18:33N 47°33' W 122°21'0 0.2
2014-Apr-11 17:34N 47°33' W 122°20'0 7.2
2014-Apr-11 17:33N 47°33' W 122°20'2 2.3
2014-Apr-11 16:33N 47°35' W 122°21'0 0.0
2014-Apr-11 16:33N 47°35' W 122°21'1 0.8
2014-Apr-11 15:33N 47°36' W 122°22'0 0.0
2014-Apr-11 15:33N 47°36' W 122°22'0 0.3
2014-Apr-11 14:33N 47°36' W 122°22'0 0.0
2014-Apr-11 14:33N 47°36' W 122°22'2 0.1
2014-Apr-10 22:33N 47°34' W 122°21'1 7.2
2014-Apr-10 22:25N 47°35' W 122°22'3 3.5
2014-Apr-10 21:33N 47°32' W 122°20'0 0.6
2014-Apr-10 21:29N 47°33' W 122°20'3 3.5
2014-Apr-10 20:33N 47°35' W 122°22'0 0.0
2014-Apr-10 20:30N 47°35' W 122°22'2 2.5
2014-Apr-10 19:33N 47°33' W 122°21'0 0.1
2014-Apr-10 19:30N 47°33' W 122°21'0 0.2
2014-Apr-10 18:33N 47°33' W 122°21'0 0.7
2014-Apr-10 18:30N 47°33' W 122°21'0 0.0
2014-Apr-10 17:33N 47°33' W 122°21'0 0.6
2014-Apr-10 17:30N 47°33' W 122°21'2 2.2
2014-Apr-10 16:33N 47°35' W 122°22'0 6.8
2014-Apr-10 16:30N 47°35' W 122°22'2 2.6
2014-Apr-10 15:33N 47°32' W 122°20'0 0.0
2014-Apr-10 15:30N 47°32' W 122°20'3 2.7
2014-Apr-10 14:33N 47°35' W 122°22'0 5.5
2014-Apr-10 14:29N 47°35' W 122°22'1 1.1
2014-Apr-10 13:33N 47°34' W 122°21'0 4.8
2014-Apr-10 13:29N 47°34' W 122°21'0 0.1
2014-Apr-10 05:54N 47°34' W 122°21'0 3.7
2014-Apr-10 05:49N 47°34' W 122°21'1 2.7
2014-Apr-10 05:33N 47°33' W 122°20'2 2.2
2014-Apr-10 04:33N 47°35' W 122°22'0 1.8
2014-Apr-10 04:29N 47°35' W 122°22'1 1.5
2014-Apr-10 03:33N 47°34' W 122°21'0 0.0
2014-Apr-10 03:29N 47°34' W 122°21'0 0.0
2014-Apr-10 02:33N 47°34' W 122°21'0 0.0
2014-Apr-10 02:29N 47°34' W 122°21'0 0.0
2014-Apr-10 01:33N 47°34' W 122°21'0 0.0
2014-Apr-10 01:29N 47°34' W 122°21'1 1.2
2014-Apr-10 00:34N 47°33' W 122°20'0 0.9
2014-Apr-10 00:33N 47°33' W 122°20'1 1.2
2014-Apr-09 23:34N 47°34' W 122°21'0 4.4
2014-Apr-09 23:33N 47°34' W 122°21'1 0.8
2014-Apr-09 22:34N 47°33' W 122°21'010.8
2014-Apr-09 22:33N 47°33' W 122°21'1 0.7
2014-Apr-09 21:34N 47°34' W 122°21'0 0.0
2014-Apr-09 21:33N 47°34' W 122°21'0 0.0
2014-Apr-09 20:34N 47°34' W 122°21'0 0.6
2014-Apr-09 20:33N 47°34' W 122°21'1 0.5
2014-Apr-09 19:33N 47°34' W 122°21'0 3.3
2014-Apr-09 19:33N 47°34' W 122°21'1 0.8
2014-Apr-09 18:33N 47°35' W 122°22'3 7.3
2014-Apr-09 18:13N 47°33' W 122°20'1 1.9
2014-Apr-09 17:33N 47°34' W 122°21'0 0.0
2014-Apr-09 17:33N 47°34' W 122°21'0 0.4
2014-Apr-09 16:33N 47°34' W 122°21'0 7.2
2014-Apr-09 16:33N 47°34' W 122°21'0 0.1
2014-Apr-09 15:33N 47°34' W 122°21'0 7.5
2014-Apr-09 15:32N 47°34' W 122°21'0 0.0
2014-Apr-09 14:33N 47°34' W 122°21'0 5.1
2014-Apr-09 14:32N 47°34' W 122°21'0 0.5
2014-Apr-09 13:33N 47°34' W 122°21'0 0.0
2014-Apr-09 13:32N 47°34' W 122°21'0 0.0
2014-Apr-09 03:28N 47°34' W 122°21'0 5.6
2014-Apr-09 03:25N 47°34' W 122°21'1 0.6
2014-Apr-09 02:33N 47°33' W 122°21'0 0.0
2014-Apr-09 02:29N 47°33' W 122°21'0 0.0
2014-Apr-09 01:33N 47°33' W 122°21'0 0.0
2014-Apr-09 01:30N 47°33' W 122°21'1 1.4
2014-Apr-09 00:33N 47°35' W 122°22'0 3.9
2014-Apr-09 00:30N 47°35' W 122°22'1 0.9
2014-Apr-08 23:33N 47°34' W 122°21'0 0.0
2014-Apr-08 23:30N 47°34' W 122°21'0 0.0
2014-Apr-08 22:33N 47°34' W 122°21'0 0.0
2014-Apr-08 22:30N 47°34' W 122°21'1 1.0
2014-Apr-08 21:33N 47°35' W 122°22'0 7.5
2014-Apr-08 21:30N 47°35' W 122°22'1 1.6
2014-Apr-08 20:33N 47°34' W 122°21'0 3.9
2014-Apr-08 20:30N 47°34' W 122°21'0 0.0
2014-Apr-08 19:33N 47°34' W 122°21'0 0.0
2014-Apr-08 19:29N 47°34' W 122°21'  

Dump ship's entire track history

sailing weather and tide predictions

Westrac — WTH4325 — position and weather